Tracking 30142 objects as of 21-Jan-2025
HD Live streaming from Space Station
objects crossing your sky now

NSS 5 (INTELSAT 803)

Track NSS 5 (INTELSAT 803) now!
NSS 5 (INTELSAT 803) is classified as:


NORAD ID: 24957
Int'l Code: 1997-053A
Perigee: 36,097.0 km
Apogee: 36,153.0 km
Inclination: 9.4 °
Period: 1,453.1 minutes
Semi major axis: 42495 km
RCS: 25.1188 m2 (large)
Launch date: September 23, 1997
Source: Netherlands (NETH)
Launch site: FRENCH GUIANA (FRGUI)

38 C-band, 6 Ku-band; Pacific Ocean region; shared capacity with Intelset.
Your satellite tracking list
Your tracking list is empty




NASA's NSSDC Master Catalog

Two Line Element Set (TLE):
1 24957U 97053A   25021.29100419  .00000049  00000-0  00000-0 0  9990
2 24957   9.4238  52.3841 0006588 221.7261 203.0081  0.99101624 99886
Source of the keplerian elements: AFSPC